STARLINK-36037 (66613 NORAD) Tracking and Keplerian Element Data

This shows tracking and keplerian element data for the satellite.

Feedback or suggestion? Click here.




ElementValue
Catalog66613
NameSTARLINK-36037
Epoch Orbit538
Epoch Day353.46403685
Epoch Year2025
RAAN153.8159
Inclination42.9985
Eccentricity0.0001195
Argument of Perigee252.8559
Mean Anonmoly107.2167
Mean Motion15.40728789
Decay Rate0.00033714
L11 66613U 25270AB 25353.46403685 .00033714 00000+0 80999-3 0 9997
L22 66613 42.9985 153.8159 0001195 252.8559 107.2167 15.40728789 5386



Live tracking and technical data element details for STARLINK-36037 (NORAD 66613). STARLINK-36037 can be tracked NOW for your location showing map with azimuth and elevation plus other details from your city location.







IsCatalogInMostPopularTable: catalog: 66613, numindb: 20
Update: records affected: 1



GetName: 66613 STARLINK-36037

Hit Count: updated at: Thu, 16 Apr 2026 04:36:02 GMT